Main page
METAR-TAF:

METAR-TAF

Airports :

Kashmar, Iran

latitude: 35-16-14N, longitude: 58-28-24E, elevation: 1110 m

Current weather observation

The report was made 20 minutes ago, at 20:00 UTC
Wind 4 kt from the Northeast
Temperature 7°C
Humidity 45%
Pressure 1024 hPa

METAR: OIMQ 182000Z AUTO 04004KT //// // ////// 07/M04 Q1024

Time: 23:50 (20:20 UTC)


TAF: missing

Weather observations and forecasts of more than 4000 airports (METAR and TAF reports).

The available stations are represented by yellow and red dots on the map.

Hover mouse over dot to see the name of the station.

Then click to see weather observations and forecasts.

To change the map : click on the green buttons with a black cross to zoom in, on the green button with a dash to zoom out, or on the green arrows for adjacent maps.


METAR-TAF: